TimeSAST,TemperatureF,Dew PointF,Humidity,Sea Level PressureIn,VisibilityMPH,Wind Direction,Wind SpeedMPH,Gust SpeedMPH,PrecipitationIn,Events,Conditions,WindDirDegrees,DateUTC
12:00 AM,60.8,51.8,72,30.24,-9999.0,East,8.1,-,N/A,,Unknown,90,2014-03-20 22:00:00
1:00 AM,62.6,55.4,77,30.27,-9999.0,ESE,6.9,-,N/A,,Unknown,120,2014-03-20 23:00:00
2:00 AM,62.6,59.0,88,30.24,-9999.0,East,6.9,-,N/A,,Unknown,80,2014-03-21 00:00:00
3:00 AM,62.6,59.0,88,30.24,-9999.0,East,5.8,-,N/A,,Unknown,90,2014-03-21 01:00:00
4:00 AM,64.4,59.0,83,30.27,-9999.0,East,4.6,-,N/A,,Unknown,90,2014-03-21 02:00:00
5:00 AM,64.4,60.8,88,30.27,-9999.0,ENE,6.9,-,N/A,,Unknown,70,2014-03-21 03:00:00
6:00 AM,64.4,60.8,88,30.30,6.2,East,6.9,-,N/A,,Mostly Cloudy,80,2014-03-21 04:00:00
7:00 AM,64.4,60.8,88,30.30,5.6,NE,6.9,-,N/A,,Mostly Cloudy,40,2014-03-21 05:00:00
8:00 AM,64.4,59.0,83,30.33,6.2,NE,8.1,-,N/A,,Mostly Cloudy,40,2014-03-21 06:00:00
9:00 AM,66.2,59.0,78,30.33,6.2,NNE,10.4,-,N/A,,Mostly Cloudy,20,2014-03-21 07:00:00
10:00 AM,68.0,59.0,73,30.36,6.2,NE,12.7,-,N/A,,Mostly Cloudy,40,2014-03-21 08:00:00
10:01 AM,68.0,59.0,73,30.36,6.2,NE,11.5,-,N/A,,Mostly Cloudy,40,2014-03-21 08:01:00
11:00 AM,68.0,59.0,73,30.33,6.2,NNE,12.7,-,N/A,,Mostly Cloudy,20,2014-03-21 09:00:00
12:00 PM,69.8,59.0,68,30.33,6.2,NNE,11.5,-,N/A,,Mostly Cloudy,30,2014-03-21 10:00:00
1:00 PM,71.6,59.0,64,30.30,6.2,North,12.7,-,N/A,,Scattered Clouds,360,2014-03-21 11:00:00
2:00 PM,75.2,59.0,57,30.27,6.2,NNE,9.2,-,N/A,,Scattered Clouds,20,2014-03-21 12:00:00
3:00 PM,75.2,59.0,57,30.27,6.2,North,9.2,-,N/A,,Scattered Clouds,10,2014-03-21 13:00:00
4:00 PM,75.2,59.0,57,30.24,6.2,North,6.9,-,N/A,,Partly Cloudy,360,2014-03-21 14:00:00
5:00 PM,75.2,57.2,53,30.24,6.2,North,9.2,-,N/A,,Partly Cloudy,360,2014-03-21 15:00:00
6:00 PM,73.4,57.2,57,30.24,-9999.0,North,6.9,-,N/A,,Clear,10,2014-03-21 16:00:00
7:00 PM,69.8,59.0,68,30.24,-9999.0,NNE,4.6,-,N/A,,Clear,20,2014-03-21 17:00:00
8:00 PM,68.0,59.0,73,30.27,-9999.0,North,3.5,-,N/A,,Clear,350,2014-03-21 18:00:00
9:00 PM,66.2,59.0,78,30.27,-9999.0,Calm,Calm,-,N/A,,Clear,0,2014-03-21 19:00:00
10:00 PM,64.4,59.0,83,30.30,-9999.0,Calm,Calm,-,N/A,,Clear,0,2014-03-21 20:00:00
11:00 PM,64.4,59.0,83,30.30,-9999.0,NE,4.6,-,N/A,,Unknown,40,2014-03-21 21:00:00